Wind_Speed
14 13 12 11 10 9 7 7 7 6 5 5 5 5 5 6 5 4 4 5 6 7 9 10 11 12 13 14 14 14 14 15 17 19 20 21 22 23 23 24 24 25
16 15 14 13 11 10 9 10 9 8 7 7 8 8 9 9 9 8 8 9 10 11 12 12 13 14 15 16 16 16 16 17 18 19 21 22 23 23 24 25 25 25
19 18 17 15 14 13 13 13 11 10 10 10 10 11 12 12 12 12 12 12 13 14 15 15 15 16 17 18 18 18 18 18 19 20 21 22 23 24 25 26 26 27
21 20 19 18 17 17 16 15 13 13 13 13 13 14 14 14 14 14 14 14 15 16 17 17 18 18 19 20 21 21 20 20 20 20 22 23 23 24 25 26 27 27
21 21 20 20 20 19 18 17 16 15 16 16 17 17 16 16 16 16 16 17 18 18 19 20 20 20 21 22 22 23 22 22 22 22 22 23 24 25 26 27 27 28
20 20 20 20 21 21 20 19 18 18 18 18 18 18 17 17 17 17 18 19 21 21 22 22 23 23 23 23 24 24 24 24 24 24 24 24 25 26 27 28 28 29
21 20 21 21 22 22 21 20 19 19 19 19 19 19 18 19 19 19 20 21 23 24 24 25 25 24 24 24 25 25 26 25 26 26 25 26 26 27 28 29 30 30
24 23 22 22 22 22 22 21 21 20 20 20 20 20 21 21 21 22 22 23 24 25 26 26 26 26 25 25 25 26 27 27 27 27 28 27 28 29 29 30 31 32
28 27 25 23 23 23 23 23 22 22 22 22 22 22 23 24 24 24 24 24 25 26 27 28 28 28 27 27 26 27 28 28 28 29 30 30 30 31 32 32 33 34
32 31 28 26 25 25 25 25 24 24 25 25 25 25 25 25 25 26 26 26 26 27 28 29 29 30 30 29 28 28 30 30 31 31 32 32 33 33 34 35 36 36
34 33 32 29 27 26 27 27 27 27 27 27 27 27 27 27 27 28 28 28 28 28 29 30 31 32 32 32 30 30 31 32 32 33 33 35 36 36 36 37 38 38
36 35 34 31 29 29 29 29 30 30 29 29 29 29 29 30 30 30 31 31 31 31 31 32 33 33 34 34 33 32 32 32 34 35 35 37 38 39 39 40 40 40
38 37 35 33 32 32 32 32 32 32 31 31 31 32 32 32 33 33 33 34 34 33 34 34 34 35 35 36 35 33 33 33 35 37 38 39 40 41 42 42 43 43
40 38 36 34 34 34 35 35 34 34 34 34 34 34 35 35 35 36 36 37 36 36 36 36 36 36 36 37 36 35 35 35 36 38 40 41 42 44 45 45 46 46
40 38 37 35 35 36 37 36 36 36 36 36 36 37 37 38 38 39 39 39 39 39 38 38 38 38 38 38 38 37 37 38 39 40 42 43 44 46 47 48 49 49
38 37 37 36 36 37 37 37 37 38 38 39 39 40 40 40 41 41 42 41 41 41 40 40 40 40 40 40 40 40 40 41 42 43 45 46 47 48 50 50 51 51
39 38 38 37 38 38 39 39 39 40 41 42 42 43 42 43 43 43 43 43 42 42 42 42 43 43 43 43 43 43 43 44 45 46 47 49 50 51 52 52 53 53
41 41 40 40 41 41 42 42 42 43 44 45 45 45 45 45 45 45 45 44 44 44 44 45 45 45 46 46 46 46 47 47 48 49 50 51 52 53 54 54 55 56
43 42 42 44 44 44 45 45 45 46 46 47 47 47 47 47 47 47 46 46 47 47 47 48 48 49 50 49 49 49 49 50 51 51 52 53 55 55 56 57 58 59
44 44 44 45 46 46 46 46 47 47 47 48 48 48 49 48 48 48 48 49 49 50 51 51 52 53 53 53 52 52 53 54 54 55 56 57 58 58 59 60 61 62
45 45 45 46 47 47 47 48 48 48 49 49 50 50 50 50 50 51 51 51 52 52 53 55 55 56 56 56 56 57 57 58 58 60 61 62 62 62 62 63 63 65
47 47 47 48 49 49 50 50 51 51 51 51 51 52 53 53 53 53 54 54 55 55 56 57 58 59 60 61 61 61 61 61 62 62 63 64 64 63 63 63 63 64
49 49 50 51 51 52 53 54 54 54 53 53 54 55 55 56 56 56 57 57 58 58 58 59 60 61 62 63 63 63 62 61 61 60 59 60 60 59 59 59 59 59
52 53 53 54 55 56 56 56 56 56 56 56 57 57 57 57 58 58 58 59 59 59 59 59 59 60 60 60 60 60 59 57 55 54 53 53 54 54 55 55 55 56
54 54 55 55 56 57 57 56 56 56 56 56 56 55 55 55 56 56 56 55 55 55 55 55 54 54 54 55 55 55 55 53 51 50 49 50 51 51 52 53 53 55
51 51 51 52 52 52 52 51 51 51 51 51 51 51 51 51 51 50 50 50 50 50 50 50 50 50 50 51 51 52 53 52 51 50 49 49 49 49 49 51 52 54
Wind_Direction
216 217 218 218 218 219 219 220 227 230 239 258 274 285 293 296 297 302 305 307 312 317 321 325 329 332 331 331 335 339 341 342 342 343 345 346 348 350 350 350 350 352
222 226 228 229 231 234 235 237 240 244 248 257 268 277 281 283 287 292 294 297 303 307 310 316 321 325 325 326 328 332 336 339 340 342 343 344 345 346 345 345 346 347
226 230 235 237 239 241 245 249 255 260 263 265 268 273 275 278 282 284 287 291 295 299 303 309 315 319 321 322 324 327 330 334 336 337 338 340 342 343 342 341 341 343
227 231 235 239 242 245 249 256 262 267 272 274 274 274 276 279 282 283 285 289 291 294 298 303 308 311 314 317 319 321 324 327 330 332 332 334 337 339 339 339 338 339
228 232 235 239 243 246 250 254 259 263 268 273 276 278 279 280 282 285 288 291 291 293 296 299 302 305 308 311 313 315 317 320 322 325 326 328 331 334 335 335 335 336
230 233 236 238 240 243 246 249 252 256 262 267 271 274 277 279 283 286 290 293 295 296 298 299 302 304 306 307 308 309 310 312 315 318 319 321 324 327 329 330 330 332
232 235 237 238 240 242 244 247 250 254 258 261 263 267 272 277 281 286 289 293 295 297 299 300 302 303 305 305 305 305 305 306 308 311 313 316 319 322 324 325 326 327
234 236 238 240 240 241 243 245 249 251 253 254 258 265 270 275 280 284 288 291 293 296 298 299 300 301 302 302 302 302 301 302 304 306 309 312 314 317 319 321 323 324
234 236 238 241 241 240 241 243 246 247 250 253 259 264 270 275 280 283 286 288 291 293 295 296 297 298 299 300 301 301 299 300 302 304 306 309 311 312 315 317 319 321
234 235 237 240 241 240 239 240 242 244 248 253 258 263 268 274 279 282 285 287 288 290 291 292 294 295 296 298 299 299 299 299 301 303 305 307 308 310 312 315 316 318
236 236 237 240 242 242 241 241 242 244 247 252 257 262 267 272 276 280 283 285 287 288 288 289 290 292 294 296 297 298 298 299 300 302 304 305 306 308 310 312 313 315
239 238 239 240 242 244 244 244 245 246 248 252 256 261 266 270 274 277 281 283 286 287 287 287 289 290 292 293 295 296 297 298 300 300 302 303 304 306 308 309 310 311
239 240 241 242 243 244 245 246 246 248 250 253 257 261 265 269 273 277 280 282 284 285 286 286 287 288 289 291 293 295 296 296 297 298 299 301 302 304 305 306 307 309
240 241 242 243 243 245 246 247 248 250 252 255 259 262 266 270 274 278 280 282 283 284 284 285 285 286 287 289 291 292 293 293 294 295 297 298 300 301 303 304 306 307
243 244 244 245 246 247 249 251 252 254 256 259 262 265 269 272 275 277 279 281 282 283 283 284 285 285 286 287 288 289 290 291 292 293 295 297 298 300 301 303 304 305
245 246 246 247 248 250 253 255 257 259 261 263 265 267 269 272 274 276 277 279 280 281 282 283 284 284 285 286 287 288 289 291 292 293 295 296 298 298 299 300 301 302
245 245 246 247 249 251 253 255 257 260 262 263 264 266 268 270 272 273 275 277 277 278 280 281 282 283 284 285 287 288 289 290 291 293 294 295 295 296 296 297 298 299
246 246 248 249 249 251 252 254 256 258 260 262 264 266 267 269 270 272 273 274 275 276 277 279 281 282 283 284 285 287 288 289 290 291 292 292 292 293 294 295 296 297
247 249 250 252 252 253 254 256 258 259 261 263 264 266 267 268 270 271 273 274 276 277 278 279 280 281 282 283 285 287 288 288 289 289 289 289 289 290 292 293 294 295
249 250 252 254 255 256 257 259 260 261 263 264 265 266 268 269 271 273 274 276 277 279 280 280 281 282 283 285 286 286 287 287 287 288 288 288 289 290 291 292 293 294
251 252 253 255 257 258 260 261 261 262 263 264 266 268 270 272 273 274 276 276 277 279 280 282 283 284 285 285 285 286 286 287 287 288 288 289 289 290 291 291 292 293
254 255 256 257 259 260 261 262 262 263 265 267 269 271 272 273 274 275 276 277 278 279 280 281 283 284 284 284 284 285 286 286 287 287 288 288 289 289 290 291 292 292
257 258 259 260 261 262 262 263 264 266 267 268 270 271 272 274 275 276 277 278 279 279 280 280 281 282 282 283 283 284 285 285 286 286 287 288 288 289 290 291 291 291
257 258 260 261 262 262 263 265 266 268 269 269 270 271 272 273 274 275 276 277 278 279 279 280 280 281 282 282 283 284 285 285 285 286 287 288 288 290 291 291 292 291
257 258 259 261 262 264 265 266 268 268 269 269 270 271 272 273 274 275 276 277 278 279 280 281 282 282 283 283 284 285 286 286 286 287 287 287 288 290 291 292 292 291
257 258 259 260 262 264 265 267 268 268 269 270 270 271 272 274 275 276 278 279 280 281 281 282 283 283 284 285 285 286 287 287 288 287 286 286 287 289 290 290 290 291
Height
10996 10997 10998 10999 11000 11001 11001 11002 11003 11003 11004 11004 11005 11005 11006 11006 11006 11006 11006 11006 11006 11006 11006 11005 11005 11005 11005 11004 11004 11004 11003 11003 11002 11001 11000 10999 10998 10996 10995 10994 10992 10991
10995 10996 10997 10998 10999 10999 11000 11001 11001 11002 11003 11004 11004 11004 11005 11005 11005 11005 11005 11005 11005 11005 11005 11004 11004 11004 11004 11003 11003 11003 11003 11002 11001 11000 10999 10998 10997 10995 10994 10992 10991 10990
10994 10995 10995 10996 10997 10998 10998 10999 11000 11001 11002 11002 11003 11003 11003 11003 11004 11004 11004 11004 11004 11003 11003 11003 11003 11003 11002 11002 11002 11002 11001 11001 11000 10999 10998 10997 10996 10994 10993 10991 10989 10988
10993 10994 10994 10995 10996 10996 10997 10998 10998 10999 11000 11000 11001 11001 11001 11002 11002 11002 11002 11002 11002 11002 11002 11002 11002 11002 11001 11001 11001 11000 11000 10999 10998 10998 10996 10995 10994 10993 10991 10989 10987 10986
10991 10992 10993 10994 10994 10995 10996 10996 10997 10997 10998 10998 10998 10999 10999 11000 11000 11000 11000 11000 11000 11000 11000 11000 11000 11000 11000 10999 10999 10998 10998 10997 10997 10996 10995 10993 10992 10991 10989 10988 10986 10985
10989 10990 10991 10992 10993 10993 10994 10995 10995 10996 10996 10996 10996 10997 10997 10997 10998 10998 10998 10998 10998 10998 10998 10998 10998 10998 10998 10998 10997 10996 10996 10995 10994 10993 10993 10991 10990 10989 10988 10986 10984 10983
10986 10988 10989 10990 10990 10991 10992 10993 10993 10994 10994 10994 10994 10994 10995 10995 10995 10996 10996 10996 10996 10995 10995 10995 10995 10995 10995 10995 10995 10994 10993 10992 10991 10991 10990 10989 10988 10987 10986 10984 10982 10981
10983 10984 10986 10987 10988 10988 10989 10990 10991 10991 10992 10992 10992 10992 10992 10992 10993 10993 10994 10994 10994 10993 10993 10992 10992 10992 10992 10992 10992 10991 10990 10989 10989 10988 10987 10986 10986 10984 10983 10982 10980 10978
10979 10981 10982 10983 10984 10986 10987 10987 10988 10988 10989 10989 10989 10990 10990 10990 10990 10991 10991 10991 10991 10991 10990 10990 10989 10989 10989 10989 10989 10988 10987 10986 10985 10984 10984 10983 10982 10981 10980 10979 10977 10976
10975 10977 10979 10980 10981 10982 10983 10984 10985 10985 10986 10986 10986 10987 10987 10987 10988 10988 10988 10988 10989 10989 10988 10987 10986 10986 10985 10985 10986 10985 10984 10983 10982 10981 10980 10979 10979 10978 10977 10975 10974 10972
10971 10973 10975 10976 10978 10979 10980 10981 10982 10982 10983 10983 10984 10984 10984 10985 10985 10985 10985 10985 10986 10986 10985 10984 10984 10983 10982 10982 10982 10982 10981 10980 10979 10978 10977 10975 10975 10974 10973 10972 10970 10969
10967 10969 10971 10973 10975 10976 10976 10977 10978 10979 10980 10980 10981 10981 10981 10981 10982 10982 10982 10982 10983 10983 10982 10982 10981 10980 10979 10978 10979 10979 10978 10977 10975 10974 10973 10972 10970 10970 10969 10968 10966 10965
10964 10966 10968 10970 10972 10972 10973 10973 10974 10975 10976 10977 10977 10978 10978 10978 10979 10979 10979 10979 10979 10980 10979 10979 10978 10977 10976 10975 10975 10975 10975 10974 10972 10970 10969 10968 10967 10965 10964 10963 10962 10961
10960 10963 10966 10968 10969 10969 10969 10970 10971 10972 10973 10973 10974 10975 10975 10975 10975 10975 10975 10975 10975 10976 10976 10975 10974 10973 10972 10971 10971 10971 10971 10970 10969 10967 10965 10964 10963 10961 10960 10959 10957 10956
10958 10961 10963 10965 10966 10966 10966 10967 10968 10969 10969 10970 10971 10971 10971 10972 10972 10972 10971 10971 10971 10971 10971 10971 10970 10969 10969 10968 10967 10967 10966 10966 10965 10963 10961 10960 10959 10957 10955 10954 10953 10951
10955 10957 10959 10961 10961 10962 10962 10963 10964 10965 10966 10966 10967 10967 10968 10968 10968 10968 10967 10968 10967 10967 10967 10966 10966 10965 10965 10964 10964 10963 10963 10962 10961 10959 10957 10956 10955 10953 10951 10949 10948 10946
10950 10952 10954 10956 10957 10958 10958 10959 10960 10961 10961 10961 10962 10963 10963 10964 10964 10963 10964 10964 10964 10963 10963 10962 10961 10961 10960 10960 10960 10959 10958 10957 10956 10955 10953 10951 10950 10948 10946 10944 10943 10941
10945 10948 10950 10951 10952 10953 10953 10955 10956 10956 10956 10957 10957 10958 10959 10959 10959 10959 10960 10960 10959 10959 10959 10958 10957 10956 10956 10955 10955 10954 10954 10953 10952 10950 10949 10946 10944 10942 10941 10939 10937 10935
10941 10944 10945 10945 10946 10948 10949 10950 10951 10951 10952 10952 10953 10954 10954 10954 10954 10955 10955 10955 10954 10954 10954 10953 10952 10951 10950 10950 10950 10949 10949 10948 10946 10944 10942 10940 10938 10937 10935 10933 10931 10929
10937 10939 10940 10940 10941 10943 10944 10945 10946 10947 10948 10948 10948 10948 10949 10949 10950 10950 10950 10950 10949 10948 10948 10947 10946 10945 10945 10944 10944 10943 10942 10941 10940 10938 10936 10934 10932 10931 10929 10927 10925 10923
10932 10934 10936 10936 10937 10938 10939 10940 10941 10942 10942 10942 10943 10943 10944 10945 10945 10945 10945 10944 10944 10943 10942 10940 10939 10939 10938 10938 10937 10936 10936 10935 10933 10931 10929 10927 10925 10924 10923 10921 10919 10917
10927 10930 10931 10931 10932 10933 10933 10934 10935 10936 10937 10938 10939 10939 10938 10939 10939 10939 10939 10938 10938 10938 10937 10935 10933 10932 10931 10930 10929 10929 10929 10928 10926 10925 10922 10919 10917 10917 10916 10915 10912 10910
10923 10924 10925 10925 10926 10926 10926 10927 10928 10930 10932 10933 10933 10933 10933 10933 10933 10933 10932 10932 10931 10931 10931 10929 10927 10926 10924 10922 10921 10921 10922 10921 10920 10919 10917 10913 10910 10910 10909 10908 10906 10903
10917 10918 10918 10919 10919 10919 10920 10921 10923 10925 10926 10926 10927 10927 10927 10927 10926 10926 10926 10925 10925 10924 10923 10922 10920 10919 10917 10915 10914 10913 10914 10914 10914 10913 10911 10907 10904 10904 10902 10901 10899 10896
10911 10912 10913 10913 10913 10913 10914 10916 10917 10918 10918 10919 10919 10920 10920 10920 10919 10919 10919 10919 10918 10917 10916 10914 10913 10912 10911 10908 10907 10906 10905 10906 10907 10906 10904 10901 10899 10899 10897 10895 10892 10889
10905 10906 10907 10907 10907 10908 10909 10909 10909 10910 10910 10911 10912 10913 10914 10913 10913 10913 10913 10912 10912 10911 10910 10908 10907 10906 10905 10902 10901 10899 10898 10898 10899 10898 10897 10896 10895 10895 10893 10890 10887 10883